#timestamp,LO_Frequency,Hit 
1503871215.0,286047003.3,N
1503871215.9,286047003.3,N
1503871235.7,286047005.3,N
1503871255.6,286047007.0,N
1503871275.4,286047006.4,N
1503871295.2,286047009.2,N
1503871315.1,286047010.7,N
1503871316.0,286047010.7,N
1503871335.8,286047008.8,N
1503871355.6,286047007.4,N
1503871375.5,286047003.1,N
1503871395.3,286047003.4,N
1503871415.1,286047004.5,N
1503871435.9,286047006.1,N
1503871455.7,286047008.1,N
1503871475.5,286047011.2,N
1503871495.3,286047011.5,N
1503871515.2,286047011.2,N
1503871535.0,286047010.2,N
1503871535.9,286047010.2,N
1503871555.3,286047006.6,N
1503871575.1,286047006.5,N
1503871595.8,286047006.9,N
1503871615.7,286047008.9,N
1503871635.5,286047007.9,N
1503871655.3,286047008.7,N
1503871675.2,286047009.0,N
1503871695.9,286047010.0,P
1503871715.7,286047004.0,N
1503871735.6,286047004.4,N
1503871755.4,286047002.2,N
1503871775.2,286047003.3,N
1503871795.1,286047001.6,N
1503871796.0,286047001.6,N
1503871815.8,286047003.6,N
1503871835.6,286047003.2,N
1503871855.5,286047004.3,N
1503871875.3,286047005.5,N
1503871895.1,286047005.7,N
1503871915.8,286047003.0,N
1503871935.7,286047001.7,N
1503871955.5,286047003.4,N
1503871975.3,286047004.9,N
1503871995.2,286047007.1,P
1503872015.0,286047002.3,N
1503872015.9,286047002.3,N
1503872035.7,286047000.2,N
1503872055.6,286047001.6,N
1503872075.4,286047000.5,N
1503872095.2,286046999.7,N
1503872115.1,286047002.8,N
1503872116.0,286047002.8,N
1503872135.8,286047000.1,N
1503872155.6,286047001.1,N
1503872175.5,286046998.5,N
1503872195.3,286046996.7,N
1503872215.1,286046995.5,N
1503872235.9,286046995.0,N
1503872255.7,286046996.6,N
1503872275.5,286046998.8,N
1503872295.4,286047001.0,N
1503872315.2,286047000.3,N
1503872335.0,286046996.6,N
1503872335.9,286046996.6,N
1503872355.7,286046999.0,N
1503872375.6,286046997.2,N
1503872395.4,286046998.5,N
1503872415.2,286046998.6,N
1503872435.1,286047000.7,N
1503872436.0,286047000.7,N
1503872455.8,286046998.6,N
1503872475.6,286046998.2,N
1503872495.5,286046997.3,N
1503872515.3,286046997.4,N
1503872535.8,286046995.1,N
1503872555.6,286046993.4,P
1503872575.5,286046999.4,N
1503872595.3,286046999.7,N
1503872615.1,286046999.5,N
1503872635.9,286046996.7,N
1503872655.7,286046996.5,N
1503872675.5,286046999.4,N
1503872695.4,286047000.6,N
1503872715.2,286046999.1,N
1503872735.0,286046999.1,N
1503872735.9,286046999.1,N
1503872755.7,286046999.2,N
1503872775.6,286046999.4,N
1503872795.4,286047000.9,N
1503872815.2,286047002.5,N
1503872835.1,286047001.2,N
1503872836.0,286047001.2,N
1503872855.8,286046999.9,N
1503872875.6,286047004.4,N
1503872895.5,286047002.0,N
1503872915.3,286047002.8,N
1503872935.1,286047000.2,N
1503872955.9,286046999.7,N
1503872975.7,286047001.4,N
1503872995.5,286047004.1,N
1503873015.4,286047005.4,N
1503873035.2,286047004.9,N
1503873055.0,286047003.2,N
1503873055.9,286047003.2,N
1503873075.7,286047002.5,N
1503873095.6,286047006.5,N
1503873115.4,286047007.3,P
1503873135.3,286047001.8,N
1503873155.1,286047002.4,N
1503873156.0,286047002.4,N
1503873175.8,286047000.6,N
1503873195.7,286047000.3,N
1503873215.5,286047004.1,N
1503873235.3,286047003.5,N
1503873255.1,286047003.5,N
1503873275.9,286047001.9,N
1503873295.7,286047001.6,N
1503873315.5,286047002.1,N
1503873335.4,286047005.9,P
1503873355.2,286046999.9,N
1503873375.0,286046998.8,N
1503873375.9,286046998.8,N
1503873395.8,286046997.6,N
1503873415.6,286046999.2,N
1503873435.4,286046998.6,N
1503873455.3,286046997.1,N
1503873475.1,286046995.5,N
1503873495.8,286046996.4,N
1503873515.7,286046996.2,N
1503873535.5,286046995.8,N
1503873555.3,286046996.3,N
1503873575.2,286046995.8,N
1503873595.9,286046996.3,N
1503873615.7,286046994.4,N
1503873635.6,286046994.0,N
1503873655.4,286046991.7,N
1503873675.2,286046992.8,N
1503873695.0,286046990.6,N
1503873695.9,286046990.6,N
1503873715.8,286046993.2,N
1503873735.6,286046990.1,N
1503873755.4,286046991.1,N
1503873775.3,286046986.5,P
1503873795.1,286046990.9,N
1503873815.8,286046991.9,N
1503873835.7,286046996.3,N
1503873855.5,286046997.7,N
1503873875.3,286046997.2,N
1503873895.2,286046998.9,N
1503873915.9,286047002.6,N
1503873935.7,286047001.4,N
1503873955.6,286046999.8,N
1503873975.4,286046999.9,N
1503873995.2,286046998.3,N
1503874015.1,286047000.9,N
1503874016.0,286047000.9,N
1503874035.8,286047002.8,N
1503874055.6,286046998.8,N
1503874075.5,286046998.4,N
1503874095.3,286046999.2,N
1503874115.1,286046998.6,N
1503874135.8,286047003.1,N
1503874155.7,286047003.8,N
1503874175.5,286047002.4,N
1503874195.3,286047004.3,N
1503874215.2,286047003.9,N
1503874235.9,286047003.0,N
1503874255.7,286047004.2,N
1503874275.6,286047003.8,N
1503874295.4,286047003.1,N
1503874315.2,286047003.7,N
1503874335.1,286047001.9,N
1503874336.0,286047001.9,N
1503874355.8,286046998.2,N
1503874375.6,286046998.1,N
1503874395.5,286047000.0,N
1503874415.3,286047002.7,N
1503874435.1,286047002.8,N
1503874455.8,286047000.2,N
1503874475.7,286047002.8,N
1503874495.5,286047001.1,N
1503874515.3,286046998.9,N
1503874535.2,286047001.0,N
1503874555.9,286047004.0,N
1503874575.7,286047003.4,N
1503874595.6,286047004.5,N
1503874615.4,286047008.7,P
1503874635.2,286047007.3,N
1503874655.1,286047004.8,N
1503874656.0,286047004.8,N
1503874675.8,286047004.9,N
1503874695.6,286047005.7,N
1503874715.5,286047003.3,N
1503874735.3,286047003.0,N
1503874755.1,286047003.6,N
1503874775.9,286047003.1,N
1503874795.7,286047001.5,N
